ARIANE 5 DEB (SYLDA), 41750

Orbit data source: Space-Track

ARIANE 5 DEB (SYLDA), 41750 is space debris in HEO originally from a launch on Wed, 24 Aug 2016 UTC launched from the French Guiana (FRGUI). Debris objects in space refer to the collection of defunct objects orbiting the Earth. Examples of debris include non-operational satellites, rocket bodies, and fragments generated from explosions, collisions, or faulty payload assembly.

Loading next visibility...
Identifier
41750, 2016-053D
Orbit
HEO
Country
Flag of FRFR
Related business
Manufacturer
ADS/Bremen
Mission
Spacecraft
Bus & Motor
SYLDA 5, Unknown motor
Mass
440 kg wet, 440 kg dry
Launch date (UTC)
2016-08-24 (9 years ago)
Launch vehicle
Unknown
Launch site
French Guiana (FRGUI)
Object type
Payload
Rocket body
Debris
Shape & HBR
Cyl, 2.8 m
Radar Cross Section
27.391 m², Large (>1 m²)

Expand to show TLE details & history
Last TLE update: 2 days ago

TLE from 2 days ago
0 ARIANE 5 DEB (SYLDA)
1 41750U 16053D   25290.22684842  .00052158  00000-0  70384-2 0  9991
2 41750   6.1444  45.8895 5917871 316.9069   9.6203  4.18395588 97871
Epoch: 2025-10-17T05:26Z
TLE epoch observation values (Epoch: 2025-10-17T05:26:39.703Z)
Latitude
-0.00022°
Longitude
-61.7056°
Altitude
994.965 km
Speed
9.144 km/s
True Right ascension
03h 03m 44s
True Declination
0° 00' 01"
Sunlit
Object was in full shadow at epoch
Visualization orbit readout
Latitude
Unknown
Longitude
Unknown
Altitude
Unknown
Speed
Unknown
Apparent Right ascension
Unknown
Apparent Declination
Unknown
Sunlit
N/A
Visualization observer readout
Local Sidereal Time
00:16:01
Azimuth
Unknown
Elevation
Unknown
Doppler factor
Unknown
Orbital elements
Apogee altitude
19,525.732 km
Perigee altitude
264.896 km
Semi-major axis
16,273.451 km
Eccentricity
0.59179
Inclination
6.1444°
RAAN
45.8895°
Arg. of periapsis
316.9069°
True anomaly
43.26447°
Mean anomaly
9.6203°
Eccentric anomaly
22.71141°
Mean motion
1.0455 °/min
Orbital period
344.33 mins
BSTAR
0.0070384
Loading maneuver chart data...
Computing Atmospheric mass density...
Loading historical data...
Loading historical data...
Loading historical data...
Loading historical data...
Loading historical data...
Loading historical data...
Loading historical data...

Documentation

Showing up to 5 results
|